Philadelphia, PA

5:36 AM EST on December 14, 2019 (GMT -0500)
Philadelphia International

Weather History for KPHL - June, 2019

Change the Weather History Date:

Wednesday, June 5, 2019

  Actual Average Record
Temperature  
Mean Temperature 75 °F 70 °F  
Max Temperature 84 °F 80 °F 100 °F (1925)
Min Temperature 65 °F 61 °F 48 °F (1990)
Degree Days  
Heating Degree Days 0 1  
Month to date heating degree days 1 5  
Since 1 June heating degree days 1 5  
Since 1 July heating degree days 4360 4607  
Cooling Degree Days 10 6  
Month to date cooling degree days 29 28  
Year to date cooling degree days 179 119  
Since 1 June cooling degree days 29 28  
Growing Degree Days 24 (Base 50)    
Moisture  
Dew Point 65 °F    
Average Humidity 67    
Maximum Humidity 82    
Minimum Humidity 51    
Precipitation  
Precipitation 0.68 in 0.13 in 2.31 in (1920)
Month to date precipitation 1.06 0.61  
Year to date precipitation 20.34 17.35  
Snow  
Snow 0.00 in 0.00 in 0.00 in ()
Month to date snowfall 0.0 0.0  
Since 1 June snowfall 0.0 0.0  
Since 1 July snowfall 17.1 22.4  
Snow Depth 0.00 in    
Sea Level Pressure  
Sea Level Pressure 29.84 in    
Wind  
Wind Speed 11 mph (SSW)    
Max Wind Speed 23 mph    
Max Gust Speed 27 mph    
Visibility 8 miles    
Events Rain , Thunderstorm    
T = Trace of Precipitation, MM = Missing Value Source: NWS Daily Summary

Daily Weather History Graph

Daily Weather History Graph

Search for Another Location

Airport or City:

Astronomy

Jun. 05, 2019 Rise Set
Actual Time 5:33 AM EDT 8:25 PM EDT
Civil Twilight 5:01 AM EDT 8:58 PM EDT
Nautical Twilight 4:20 AM EDT 9:39 PM EDT
Astronomical Twilight 3:33 AM EDT 10:26 PM EDT
Moon 7:36 AM EDT (6/5) 10:50 PM EDT (6/5)
Length of Visible Light 15h 57m
Length of Day
14h 52m
Waxing Crescent, 6% of the Moon is Illuminated
Jun 5
Waxing Crescent
Jun 10
First Quarter
Jun 17
Full
Jun 25
Last Quarter
Jul 2
New

Hourly Weather History & Observations

Time (EDT) Temp. Heat Index Dew Point Humidity Pressure Visibility Wind Dir Wind Speed Gust Speed Precip Events Conditions
12:54 AM 66.0 °F - 50.0 °F 56% 30.02 in 10.0 mi SSW 9.2 mph - N/A   Overcast
1:54 AM 68.0 °F - 52.0 °F 56% 30.00 in 10.0 mi SSW 9.2 mph - N/A   Overcast
2:54 AM 68.0 °F - 54.0 °F 61% 29.99 in 10.0 mi SW 11.5 mph - N/A   Overcast
3:54 AM 66.9 °F - 55.9 °F 68% 29.98 in 10.0 mi South 9.2 mph - N/A   Overcast
4:54 AM 66.0 °F - 57.0 °F 73% 29.97 in 10.0 mi South 8.1 mph - N/A   Mostly Cloudy
5:54 AM 64.9 °F - 57.9 °F 78% 29.96 in 10.0 mi South 5.8 mph - N/A   Scattered Clouds
6:54 AM 66.0 °F - 59.0 °F 78% 29.96 in 10.0 mi South 8.1 mph - N/A   Scattered Clouds
7:54 AM 68.0 °F - 60.1 °F 76% 29.95 in 10.0 mi SSW 8.1 mph - N/A   Scattered Clouds
8:54 AM 71.1 °F - 61.0 °F 70% 29.95 in 10.0 mi SW 9.2 mph - N/A   Mostly Cloudy
9:54 AM 73.9 °F - 60.1 °F 62% 29.94 in 10.0 mi SW 11.5 mph - N/A   Mostly Cloudy
10:54 AM 77.0 °F - 60.1 °F 56% 29.91 in 10.0 mi SW 10.4 mph - N/A   Mostly Cloudy
11:54 AM 80.1 °F 81.1 °F 61.0 °F 52% 29.90 in 10.0 mi SW 11.5 mph - N/A   Mostly Cloudy
12:54 PM 82.0 °F 83.1 °F 63.0 °F 52% 29.87 in 10.0 mi SSW 10.4 mph - N/A   Mostly Cloudy
1:54 PM 82.9 °F 84.0 °F 63.0 °F 51% 29.85 in 10.0 mi SSW 10.4 mph - N/A   Mostly Cloudy
2:54 PM 82.9 °F 84.6 °F 64.9 °F 54% 29.83 in 10.0 mi SSW 10.4 mph - N/A   Mostly Cloudy
3:54 PM 84.0 °F 86.5 °F 66.9 °F 56% 29.81 in 10.0 mi SW 15.0 mph - N/A   Mostly Cloudy
4:54 PM 82.9 °F 85.0 °F 66.0 °F 56% 29.79 in 10.0 mi SW 16.1 mph - N/A   Overcast
5:54 PM 82.0 °F 84.5 °F 66.9 °F 60% 29.77 in 10.0 mi WSW 13.8 mph - N/A   Overcast
6:19 PM 80.1 °F 82.7 °F 68.0 °F 67% 29.76 in 6.0 mi SSW 20.7 mph 24.2 mph 0.00 in Rain Light Rain
6:22 PM 75.9 °F - 69.1 °F 79% 29.77 in 2.0 mi South 23.0 mph - 0.00 in Rain Rain
6:34 PM 73.0 °F - 69.1 °F 87% 29.76 in 6.0 mi Calm Calm - 0.27 in Rain Light Rain
6:42 PM 75.0 °F - 69.1 °F 82% 29.76 in 7.0 mi South 3.5 mph - 0.27 in Rain , Thunderstorm Light Thunderstorms and Rain
6:54 PM 75.9 °F - 70.0 °F 82% 29.75 in 7.0 mi South 5.8 mph - 0.31 in Rain , Thunderstorm Light Thunderstorms and Rain
7:02 PM 75.9 °F - 70.0 °F 82% 29.75 in 7.0 mi South 4.6 mph - 0.00 in Rain Light Rain
7:54 PM 78.1 °F - 69.1 °F 74% 29.75 in 8.0 mi SSW 9.2 mph - 0.00 in   Overcast
8:54 PM 75.9 °F - 69.1 °F 79% 29.77 in 10.0 mi South 15.0 mph - N/A   Overcast
9:37 PM 73.9 °F - 69.1 °F 85% 29.78 in 7.0 mi South 12.7 mph - N/A   Overcast
9:42 PM 73.0 °F - 69.1 °F 87% 29.78 in 5.0 mi South 13.8 mph - 0.00 in Rain Light Rain
9:45 PM 73.0 °F - 69.1 °F 87% 29.78 in 3.0 mi South 15.0 mph - 0.00 in Rain Light Rain
9:50 PM 73.4 °F - 69.8 °F 88% 29.77 in 6.0 mi South 10.4 mph - 0.09 in Rain Light Rain
9:54 PM 72.0 °F - 70.0 °F 93% 29.77 in 6.0 mi South 11.5 mph - 0.31 in Rain Light Rain
10:01 PM 72.0 °F - 70.0 °F 93% 29.77 in 4.0 mi South 12.7 mph - 0.02 in   Overcast
10:23 PM 73.0 °F - 70.0 °F 90% 29.77 in 6.0 mi SSW 10.4 mph - 0.02 in Rain Light Rain
10:40 PM 73.0 °F - 70.0 °F 90% 29.77 in 4.0 mi SSW 12.7 mph 19.6 mph 0.04 in Rain Light Rain
10:49 PM 73.4 °F - 69.8 °F 88% 29.77 in 6.0 mi SSW 12.7 mph - 0.05 in Rain Light Rain
10:54 PM 73.0 °F - 70.0 °F 90% 29.77 in 6.0 mi SSW 13.8 mph - 0.06 in Rain Light Rain
11:07 PM 73.0 °F - 69.1 °F 87% 29.77 in 7.0 mi SSW 13.8 mph 23.0 mph 0.00 in Rain Light Rain
11:54 PM 72.0 °F - 69.1 °F 91% 29.77 in 9.0 mi SSW 15.0 mph - 0.00 in   Overcast